Wind_Speed
37 34 39 36 34 33 31 24 24 26 28 35 35 28 22 19 19 16 13 11 12 15 18 23 27 27 28 28 29 30 28 33 45 54 48 47 51 47 43 38 35 33 31
37 36 39 39 36 36 34 29 34 29 20 30 34 29 20 19 16 14 12 11 13 17 21 25 30 30 30 30 28 35 38 48 48 58 58 51 47 47 43 40 36 29 28
35 35 36 39 36 36 35 31 34 27 22 27 34 24 19 16 15 13 12 12 15 17 22 27 32 31 31 30 34 40 42 47 50 51 53 52 46 41 34 40 32 30 29
28 27 30 34 33 37 32 31 30 26 22 23 23 18 15 15 14 12 12 14 15 19 23 29 33 30 29 31 34 38 43 52 50 48 47 48 42 38 32 34 33 29 26
18 20 23 26 26 26 29 28 28 27 19 20 17 16 16 14 13 11 12 14 18 21 25 30 31 26 26 30 35 40 47 53 45 44 40 38 37 39 34 30 30 25 25
10 13 17 20 22 24 28 25 18 21 20 18 17 16 15 13 12 10 12 15 19 24 28 31 29 27 29 32 36 39 43 45 39 34 36 39 41 35 31 30 29 25 25
9 11 15 17 19 21 22 16 16 17 16 16 16 15 12 11 10 10 12 16 20 25 28 28 26 25 29 33 37 41 49 42 33 32 35 38 39 36 26 26 24 21 20
9 11 13 14 16 18 18 13 13 14 15 14 12 11 11 9 9 10 13 16 20 24 27 24 24 25 28 32 37 41 46 45 35 29 32 32 30 21 18 17 11 10 14
9 10 11 11 15 17 15 12 12 14 14 11 10 9 8 9 9 11 14 16 21 24 25 21 20 23 26 29 35 38 44 44 37 32 29 21 14 2 2 7 6 6 11
7 8 9 10 13 15 11 11 10 11 10 10 8 9 7 9 10 13 14 16 21 25 25 20 17 19 22 26 31 35 38 45 44 39 42 25 20 4 4 2 4 5 6
5 5 7 7 12 14 12 10 9 11 10 9 8 8 8 9 12 14 14 15 20 24 20 18 16 18 19 21 25 30 30 37 43 43 38 37 30 17 8 3 3 6 6
2 4 8 8 15 14 13 10 10 11 10 9 9 8 10 12 14 14 13 15 20 22 19 17 16 17 17 18 21 24 29 33 37 45 46 44 36 33 28 15 5 3 4
6 7 7 12 16 15 14 11 13 13 10 10 9 9 11 11 13 11 10 14 18 18 16 16 16 16 15 15 16 20 24 29 33 37 42 44 43 33 25 25 25 21 11
5 8 9 14 17 18 15 12 15 13 12 11 9 12 11 11 10 7 7 12 15 14 15 15 15 13 12 12 14 17 21 24 27 30 33 35 36 40 40 36 35 35 34
7 10 10 13 17 17 15 13 15 13 14 9 10 12 14 11 8 3 6 11 12 14 14 12 12 13 14 15 15 16 18 20 22 24 27 28 30 32 33 35 37 38 37
3 6 9 13 15 16 12 12 12 14 12 10 11 11 9 10 5 1 7 10 12 13 13 13 15 17 17 18 18 18 18 19 20 21 23 24 27 27 27 27 29 33 32
2 6 7 9 14 13 9 10 15 12 12 10 8 10 10 9 5 5 8 10 11 12 14 15 16 17 17 17 17 18 18 18 18 18 21 23 22 24 24 25 24 22 22
4 4 6 5 5 7 7 8 12 10 9 7 12 15 13 9 5 7 9 11 10 14 15 16 16 16 16 16 15 15 16 17 17 18 19 21 22 21 22 23 24 21 18
6 5 9 9 8 7 9 11 10 10 9 12 18 18 14 9 6 6 9 8 10 13 14 15 16 16 16 16 15 14 15 16 17 18 19 19 19 19 19 20 20 20 20
5 6 6 6 5 6 9 10 10 10 11 14 18 17 16 10 6 4 7 8 9 11 13 14 15 15 15 15 15 14 14 14 15 16 18 18 18 18 17 17 19 20 18
7 8 8 7 7 7 9 10 10 10 11 16 17 16 12 8 4 4 4 6 7 9 11 13 13 14 14 14 14 13 13 13 14 15 16 17 18 16 16 15 15 15 17
6 6 7 7 8 6 8 9 9 10 13 17 16 17 12 9 7 3 3 4 5 7 10 11 12 13 13 13 13 13 13 12 12 13 14 15 15 16 15 15 15 15 17
3 3 4 6 7 8 7 7 8 11 15 18 18 17 13 10 7 3 1 2 3 6 9 10 12 12 12 13 13 13 13 13 14 14 14 14 14 14 13 14 15 15 15
5 5 4 5 6 6 6 8 11 13 16 17 18 17 12 12 9 4 0 1 2 5 7 9 10 11 12 13 14 14 14 13 14 13 13 13 12 12 12 12 13 14 14
5 4 2 3 5 5 6 8 10 14 17 15 21 17 16 13 9 5 1 1 2 4 6 7 9 10 11 12 13 14 15 15 14 13 12 11 11 12 11 11 11 11 13
4 3 3 3 4 6 7 9 11 15 17 18 17 15 16 12 9 4 2 2 2 3 5 6 8 9 11 12 13 14 15 15 15 14 13 12 11 11 10 10 10 9 11
Wind_Direction
243 239 246 244 245 243 241 238 236 238 259 262 269 278 278 284 286 282 289 295 306 317 322 330 333 328 326 324 320 317 310 312 303 303 300 297 302 295 292 293 291 280 269
247 244 245 247 245 251 243 234 236 238 273 260 263 275 281 278 271 277 279 292 307 318 326 331 335 330 327 322 319 319 315 325 310 301 301 297 293 294 293 289 290 276 265
251 251 250 249 244 253 245 241 238 234 249 261 256 270 268 263 266 271 276 292 305 319 328 333 333 330 328 322 323 323 327 322 309 302 300 301 302 297 278 284 286 286 271
258 257 255 255 251 249 247 251 252 239 250 256 254 252 251 255 259 264 284 286 306 322 328 331 330 328 326 323 323 327 328 323 317 313 309 307 308 304 290 281 278 280 277
257 256 255 259 258 249 239 246 238 227 248 246 241 239 242 244 252 264 279 295 311 320 328 330 327 327 328 327 331 332 333 331 327 319 315 316 312 307 287 273 274 278 275
247 249 250 252 249 243 238 239 221 225 230 232 231 234 236 243 257 265 288 301 312 322 326 329 326 330 332 335 337 342 339 335 325 321 318 309 301 302 294 268 264 271 267
224 238 245 248 246 240 235 214 211 215 222 224 225 229 233 245 253 279 297 306 314 322 324 326 327 332 335 337 341 342 348 347 340 338 325 315 302 288 289 272 264 266 261
239 251 252 247 236 230 212 208 210 217 218 215 220 229 236 248 257 279 302 309 316 324 328 328 327 332 337 341 346 348 353 358 352 345 337 326 308 278 263 265 279 270 266
252 269 271 249 233 215 201 203 217 215 207 211 220 228 243 249 268 288 302 310 320 327 332 332 329 332 338 344 352 352 358 6 358 7 359 350 354 1 229 247 242 232 271
265 269 265 252 232 208 204 208 218 207 210 217 214 228 248 267 283 297 299 311 324 332 334 336 336 335 338 348 357 359 3 12 14 20 24 26 36 31 158 191 172 200 251
257 278 278 239 212 197 202 217 220 209 210 222 226 233 259 278 291 297 300 317 330 332 333 336 339 339 341 352 360 7 8 16 26 29 30 40 46 45 36 76 173 221 255
357 339 290 233 197 210 213 229 220 211 214 230 237 241 265 282 287 289 301 323 333 332 333 337 339 338 338 350 360 7 15 18 27 36 37 39 37 52 69 84 102 208 278
295 296 252 217 205 211 219 236 219 213 226 233 238 258 269 274 274 277 307 329 333 334 338 341 335 326 329 343 0 10 21 26 32 37 43 40 43 48 61 80 80 86 117
248 228 236 224 218 214 219 232 220 222 232 236 242 263 262 268 253 270 312 330 341 344 354 352 349 346 352 357 10 18 25 29 35 40 43 48 39 43 53 57 69 74 72
230 222 230 232 225 221 237 231 220 230 233 238 255 254 271 236 209 250 339 348 352 1 2 356 6 18 16 19 20 24 28 30 32 36 37 39 42 39 46 53 57 63 69
252 240 238 237 228 234 239 226 226 223 224 256 251 261 227 187 186 29 1 5 6 8 7 20 21 26 25 21 22 25 26 28 29 30 33 35 38 43 45 47 54 59 62
311 265 253 240 230 232 221 225 217 224 249 242 243 190 172 173 142 59 27 18 14 16 27 29 29 27 24 22 23 26 26 26 26 29 30 34 38 39 39 45 51 53 57
327 253 241 246 243 239 240 227 229 240 218 204 173 168 167 154 116 61 32 24 23 26 30 30 28 27 26 26 23 27 27 26 30 32 33 36 38 39 40 45 44 46 42
276 255 236 234 236 228 236 244 230 205 196 192 176 171 169 156 120 67 42 28 32 29 25 23 22 22 25 27 25 28 31 28 29 32 35 37 35 35 36 39 43 45 47
257 228 226 225 226 224 222 219 218 212 200 192 179 176 175 160 139 78 43 22 25 24 23 19 18 22 23 24 25 26 30 32 33 35 39 41 40 41 36 34 37 40 40
250 246 245 234 224 238 223 209 212 207 193 182 180 182 175 167 146 107 44 23 22 18 18 19 22 24 24 23 24 28 31 29 30 34 38 39 39 36 36 33 36 36 33
244 252 244 220 215 203 189 186 187 187 174 171 169 175 177 176 169 145 33 19 11 9 12 19 25 26 26 27 26 27 29 29 28 31 33 31 31 33 32 33 36 35 34
239 205 185 182 179 178 172 177 179 172 160 167 170 173 166 150 157 180 10 22 13 6 10 20 24 25 27 28 27 29 29 25 23 23 25 25 23 28 24 25 31 31 30
186 169 165 165 163 165 171 164 166 162 168 168 172 159 156 164 164 187 139 60 35 14 18 24 27 29 30 30 29 29 27 25 23 20 21 22 20 23 24 26 28 29 28
181 171 163 184 191 177 180 163 174 173 171 173 158 161 166 169 179 179 145 122 47 30 37 38 36 37 36 35 32 29 26 23 21 19 22 20 19 22 27 28 31 30 31
174 166 146 122 144 157 156 165 164 155 154 158 171 171 165 175 176 161 150 153 110 83 67 54 47 43 40 36 31 28 26 23 22 20 21 20 22 24 29 29 33 36 33
Height
1518 1524 1525 1529 1534 1540 1541 1546 1548 1547 1544 1546 1549 1547 1546 1546 1546 1547 1547 1546 1546 1544 1541 1535 1531 1527 1521 1515 1511 1505 1500 1494 1477 1461 1462 1455 1447 1445 1444 1442 1441 1440 1439
1511 1517 1519 1523 1528 1531 1534 1536 1537 1541 1541 1540 1543 1542 1541 1542 1542 1543 1543 1542 1542 1541 1537 1532 1525 1522 1515 1510 1506 1499 1491 1484 1472 1451 1446 1440 1437 1434 1429 1428 1429 1429 1429
1505 1509 1512 1514 1519 1520 1526 1529 1530 1535 1537 1535 1536 1536 1537 1538 1540 1540 1540 1539 1539 1536 1531 1526 1520 1515 1509 1505 1499 1491 1480 1472 1462 1449 1434 1428 1423 1421 1419 1418 1417 1416 1418
1499 1502 1505 1506 1511 1513 1519 1524 1523 1526 1528 1528 1530 1531 1533 1535 1536 1537 1536 1535 1534 1531 1526 1521 1515 1509 1504 1498 1492 1482 1472 1462 1449 1438 1428 1418 1412 1409 1409 1407 1407 1408 1408
1493 1496 1498 1501 1504 1508 1512 1515 1518 1521 1523 1524 1525 1527 1529 1531 1532 1533 1533 1532 1529 1525 1521 1516 1510 1505 1500 1494 1485 1475 1464 1451 1439 1429 1420 1412 1406 1402 1401 1400 1399 1401 1401
1488 1491 1494 1496 1498 1501 1505 1509 1512 1517 1518 1520 1522 1524 1526 1528 1529 1529 1529 1527 1524 1521 1515 1511 1505 1500 1494 1487 1480 1471 1462 1446 1432 1424 1414 1405 1398 1396 1393 1393 1393 1394 1395
1484 1487 1489 1491 1493 1496 1500 1505 1509 1512 1514 1516 1520 1522 1523 1524 1525 1525 1524 1522 1521 1516 1511 1505 1500 1496 1489 1481 1473 1463 1453 1439 1426 1417 1407 1397 1386 1385 1385 1386 1387 1390 1390
1483 1485 1488 1490 1492 1494 1497 1502 1506 1508 1511 1514 1516 1519 1521 1521 1521 1521 1520 1518 1516 1512 1506 1501 1496 1491 1485 1477 1468 1459 1448 1432 1420 1409 1400 1385 1375 1372 1377 1380 1383 1384 1385
1482 1485 1487 1488 1490 1491 1495 1500 1504 1506 1509 1511 1512 1515 1516 1518 1518 1518 1517 1515 1511 1507 1502 1497 1493 1487 1482 1475 1466 1456 1446 1430 1419 1404 1394 1381 1372 1370 1373 1377 1380 1382 1383
1480 1482 1483 1486 1490 1493 1497 1500 1502 1505 1508 1510 1510 1513 1513 1514 1516 1515 1513 1510 1507 1502 1498 1493 1490 1485 1480 1474 1465 1456 1446 1434 1419 1403 1395 1382 1376 1374 1375 1377 1380 1382 1384
1478 1481 1484 1484 1489 1490 1493 1497 1500 1502 1504 1508 1508 1508 1510 1511 1511 1510 1508 1505 1502 1498 1494 1489 1487 1483 1478 1473 1466 1458 1450 1439 1427 1414 1402 1390 1382 1378 1378 1379 1381 1383 1382
1476 1476 1485 1483 1484 1489 1492 1494 1496 1499 1501 1504 1505 1504 1505 1506 1506 1506 1504 1502 1498 1495 1491 1487 1484 1481 1477 1471 1466 1461 1452 1444 1434 1421 1411 1400 1393 1387 1384 1383 1382 1382 1383
1466 1472 1477 1482 1481 1483 1488 1491 1493 1496 1499 1500 1501 1501 1502 1501 1502 1502 1502 1499 1496 1492 1488 1485 1481 1479 1475 1470 1466 1460 1454 1447 1439 1430 1421 1414 1407 1401 1394 1388 1386 1385 1384
1464 1469 1473 1479 1479 1481 1484 1487 1489 1491 1495 1499 1497 1498 1499 1498 1498 1499 1499 1498 1493 1490 1487 1483 1480 1476 1472 1469 1465 1461 1456 1450 1445 1439 1432 1426 1420 1412 1405 1398 1391 1389 1385
1464 1465 1469 1474 1477 1479 1482 1483 1486 1488 1494 1495 1495 1495 1494 1494 1496 1497 1496 1494 1492 1489 1486 1483 1479 1475 1472 1468 1465 1462 1458 1454 1450 1444 1439 1433 1427 1421 1417 1413 1407 1403 1398
1460 1464 1466 1471 1474 1476 1478 1481 1484 1487 1489 1491 1491 1491 1491 1493 1495 1494 1494 1492 1491 1488 1485 1482 1478 1475 1471 1468 1466 1463 1460 1456 1452 1448 1443 1438 1433 1429 1426 1421 1418 1414 1412
1458 1462 1466 1469 1472 1474 1473 1475 1481 1484 1485 1487 1487 1488 1490 1492 1493 1493 1493 1491 1489 1488 1485 1482 1479 1476 1473 1470 1467 1464 1461 1458 1455 1451 1447 1443 1439 1435 1431 1428 1425 1424 1423
1457 1461 1466 1468 1468 1470 1471 1475 1477 1480 1482 1483 1483 1485 1490 1492 1493 1492 1492 1490 1490 1487 1485 1483 1481 1478 1475 1472 1469 1467 1464 1461 1457 1454 1450 1447 1443 1440 1437 1434 1432 1430 1431
1458 1459 1465 1465 1466 1467 1471 1473 1475 1477 1479 1480 1482 1485 1489 1490 1492 1492 1492 1492 1490 1488 1486 1484 1482 1479 1476 1473 1471 1468 1466 1463 1460 1456 1453 1450 1448 1445 1443 1440 1437 1435 1433
1459 1461 1462 1463 1463 1465 1468 1470 1472 1474 1477 1479 1481 1484 1487 1489 1490 1491 1490 1491 1490 1489 1488 1486 1483 1479 1477 1474 1472 1470 1467 1465 1462 1459 1456 1454 1452 1449 1448 1446 1442 1440 1438
1459 1459 1459 1460 1463 1465 1466 1466 1468 1470 1473 1476 1479 1484 1487 1489 1490 1491 1491 1490 1490 1489 1489 1487 1484 1481 1478 1476 1473 1471 1469 1467 1464 1462 1459 1457 1454 1453 1451 1450 1447 1446 1443
1458 1455 1456 1460 1462 1462 1463 1464 1465 1467 1470 1473 1478 1482 1486 1488 1489 1491 1490 1490 1490 1490 1489 1487 1484 1482 1480 1477 1475 1473 1470 1468 1466 1463 1461 1459 1457 1455 1454 1451 1449 1447 1445
1455 1455 1457 1458 1459 1460 1461 1462 1464 1466 1469 1472 1476 1481 1484 1487 1488 1490 1490 1490 1490 1490 1489 1487 1485 1483 1481 1479 1477 1474 1472 1469 1467 1464 1463 1461 1459 1457 1456 1454 1450 1448 1447
1455 1456 1456 1457 1458 1459 1460 1462 1464 1466 1468 1472 1475 1479 1483 1485 1487 1489 1489 1489 1490 1489 1489 1487 1486 1485 1482 1480 1478 1476 1473 1471 1469 1466 1464 1463 1461 1459 1457 1454 1452 1450 1449
1454 1455 1455 1456 1457 1459 1460 1463 1464 1465 1468 1471 1474 1479 1481 1485 1487 1488 1488 1489 1489 1489 1489 1488 1487 1486 1484 1482 1480 1477 1475 1472 1469 1467 1465 1464 1461 1459 1457 1456 1454 1453 1451
1453 1454 1455 1455 1456 1459 1461 1462 1464 1466 1469 1472 1476 1479 1482 1484 1486 1487 1487 1488 1488 1489 1489 1489 1488 1486 1485 1483 1481 1478 1476 1473 1470 1468 1465 1463 1462 1459 1458 1457 1456 1455 1454